Warroad, MN

8:06 AM CST on January 16, 2017 (GMT -0600)
Warroad International-Carlson

Weather History for KRRT - October, 2012

Change the Weather History Date:

Tuesday, October 2, 2012

  Actual Average Record
Temperature  
Mean Temperature 58 °F -  
Max Temperature 73 °F 60 °F 83 °F (1992)
Min Temperature 42 °F 36 °F 21 °F (1974)
Degree Days  
Heating Degree Days 8    
Growing Degree Days 8 (Base 50)    
Moisture  
Dew Point 35 °F    
Average Humidity 43    
Maximum Humidity 66    
Minimum Humidity 25    
Precipitation  
Precipitation 0.00 in - - ()
Sea Level Pressure  
Sea Level Pressure 29.75 in    
Wind  
Wind Speed 9 mph (SSW)    
Max Wind Speed 24 mph    
Max Gust Speed 39 mph    
Visibility 9 miles    
Events      
Averages and records for this station are not official NWS values.
T = Trace of Precipitation, MM = Missing Value Source: NWS Daily Summary

Daily Weather History Graph

Daily Weather History Graph

Search for Another Location

Airport or City:

Trip Planner

Search our weather history database for the weather conditions in past years. The results will help you decide how hot, cold, wet, or windy it might be!

Date:

Astronomy

Oct. 02, 2012 Rise Set
Actual Time 7:23 AM CDT 6:56 PM CDT
Civil Twilight 6:51 AM CDT 7:28 PM CDT
Nautical Twilight 6:14 AM CDT 8:05 PM CDT
Astronomical Twilight 5:37 AM CDT 8:42 PM CDT
Moon 7:52 PM CDT (10/2) 10:08 AM CDT (10/2)
Length of Visible Light 12h 36m
Length of Day
11h 33m
Waning Gibbous, 94% of the Moon is Illuminated
Oct 2
Waning Gibbous
Oct 8
Last Quarter
Oct 15
New
Oct 21
First Quarter
Oct 29
Full

Hourly Weather History & Observations

Time (CDT) Temp. Windchill Dew Point Humidity Pressure Visibility Wind Dir Wind Speed Gust Speed Precip Events Conditions
12:09 AM 42.8 °F - 32.0 °F 66% 29.93 in 10.0 mi Calm Calm - N/A   Clear
12:25 AM 44.6 °F 40.7 °F 32.0 °F 61% 29.92 in 10.0 mi South 6.9 mph - N/A   Unknown
12:51 AM 46.4 °F 43.5 °F 32.0 °F 57% 29.92 in 10.0 mi South 5.8 mph - N/A   Clear
1:14 AM 46.4 °F 44.3 °F 33.8 °F 62% 29.91 in 10.0 mi South 4.6 mph - N/A   Clear
1:34 AM 44.6 °F 42.2 °F 33.8 °F 66% 29.91 in 10.0 mi South 4.6 mph - N/A   Clear
2:14 AM 44.6 °F 42.2 °F 33.8 °F 66% 29.91 in 10.0 mi South 4.6 mph - N/A   Clear
2:34 AM 46.4 °F 44.3 °F 33.8 °F 62% 29.90 in 7.0 mi South 4.6 mph - N/A   Clear
2:45 AM 46.4 °F 43.5 °F 33.8 °F 62% 29.89 in 5.0 mi South 5.8 mph - N/A   Haze
3:14 AM 46.4 °F 45.2 °F 33.8 °F 62% 29.89 in 5.0 mi South 3.5 mph - N/A   Clear
3:34 AM 46.4 °F 43.5 °F 32.0 °F 57% 29.88 in 5.0 mi South 5.8 mph - N/A   Haze
4:14 AM 44.6 °F 43.1 °F 32.0 °F 61% 29.88 in 7.0 mi South 3.5 mph - N/A   Clear
4:34 AM 44.6 °F 42.2 °F 32.0 °F 61% 29.87 in 10.0 mi South 4.6 mph - N/A   Clear
4:54 AM 46.4 °F 43.5 °F 32.0 °F 57% 29.87 in 10.0 mi South 5.8 mph - N/A   Clear
5:34 AM 48.2 °F - 32.0 °F 54% 29.86 in 10.0 mi South 6.9 mph - N/A   Clear
5:54 AM 48.2 °F - 32.0 °F 54% 29.85 in 10.0 mi South 6.9 mph - N/A   Clear
6:14 AM 48.2 °F - 32.0 °F 54% 29.85 in 10.0 mi South 6.9 mph - N/A   Clear
6:34 AM 48.2 °F - 32.0 °F 54% 29.85 in 10.0 mi South 8.1 mph - N/A   Clear
6:54 AM 50.0 °F - 32.0 °F 50% 29.83 in 10.0 mi South 6.9 mph - N/A   Clear
7:14 AM 50.0 °F - 32.0 °F 50% 29.83 in 10.0 mi South 8.1 mph - N/A   Clear
7:34 AM 48.2 °F - 32.0 °F 54% 29.83 in 10.0 mi South 9.2 mph - N/A   Clear
7:54 AM 50.0 °F - 32.0 °F 50% 29.83 in 10.0 mi South 8.1 mph - N/A   Clear
8:14 AM 50.0 °F - 32.0 °F 50% 29.82 in 10.0 mi South 6.9 mph 19.6 mph N/A   Clear
8:34 AM 50.0 °F - 33.8 °F 54% 29.81 in 10.0 mi South 9.2 mph - N/A   Clear
8:54 AM 51.8 °F - 33.8 °F 50% 29.80 in 10.0 mi South 8.1 mph - N/A   Clear
9:15 AM 53.6 °F - 33.8 °F 47% 29.78 in 10.0 mi South 12.7 mph 18.4 mph N/A   Clear
9:34 AM 55.4 °F - 33.8 °F 44% 29.77 in 10.0 mi South 10.4 mph 19.6 mph N/A   Clear
9:54 AM 57.2 °F - 33.8 °F 41% 29.77 in 10.0 mi South 6.9 mph 19.6 mph N/A   Clear
10:15 AM 60.8 °F - 33.8 °F 36% 29.76 in 10.0 mi South 13.8 mph 23.0 mph N/A   Clear
10:34 AM 62.6 °F - 33.8 °F 34% 29.74 in 7.0 mi South 12.7 mph 25.3 mph N/A   Clear
10:54 AM 62.6 °F - 33.8 °F 34% 29.73 in 10.0 mi South 15.0 mph 25.3 mph N/A   Clear
11:15 AM 64.4 °F - 33.8 °F 32% 29.72 in 4.0 mi South 20.7 mph 32.2 mph N/A   Haze
11:34 AM 64.4 °F - 33.8 °F 32% 29.71 in 5.0 mi South 16.1 mph 27.6 mph N/A   Haze
11:54 AM 66.2 °F - 33.8 °F 30% 29.70 in 5.0 mi South 15.0 mph 29.9 mph N/A   Haze
12:14 PM 66.2 °F - 33.8 °F 30% 29.69 in 4.0 mi South 20.7 mph 39.1 mph N/A   Haze
12:34 PM 68.0 °F - 33.8 °F 28% 29.68 in 7.0 mi South 18.4 mph 29.9 mph N/A   Clear
12:54 PM 68.0 °F - 33.8 °F 28% 29.67 in 2.5 mi South 23.0 mph 35.7 mph N/A   Haze
1:14 PM 69.8 °F - 33.8 °F 27% 29.65 in 3.0 mi South 18.4 mph 32.2 mph N/A   Haze
1:34 PM 69.8 °F - 33.8 °F 27% 29.64 in 3.0 mi South 20.7 mph 33.4 mph N/A   Haze
1:54 PM 69.8 °F - 33.8 °F 27% 29.63 in 4.0 mi South 24.2 mph 35.7 mph N/A   Haze
2:14 PM 71.6 °F - 33.8 °F 25% 29.63 in 5.0 mi South 16.1 mph 31.1 mph N/A   Haze
2:34 PM 71.6 °F - 33.8 °F 25% 29.63 in 7.0 mi South 17.3 mph 31.1 mph N/A   Clear
2:54 PM 71.6 °F - 33.8 °F 25% 29.63 in 10.0 mi South 18.4 mph 33.4 mph N/A   Clear
3:14 PM 71.6 °F - 33.8 °F 25% 29.63 in 10.0 mi SSW 18.4 mph 38.0 mph N/A   Clear
3:34 PM 71.6 °F - 33.8 °F 25% 29.63 in 7.0 mi SSW 20.7 mph 31.1 mph N/A   Clear
3:54 PM 71.6 °F - 33.8 °F 25% 29.63 in 10.0 mi SSW 19.6 mph 27.6 mph N/A   Clear
4:14 PM 71.6 °F - 33.8 °F 25% 29.63 in 10.0 mi SSW 20.7 mph 33.4 mph N/A   Clear
4:34 PM 73.4 °F - 35.6 °F 25% 29.62 in 10.0 mi SSW 20.7 mph 29.9 mph N/A   Clear
4:54 PM 73.4 °F - 35.6 °F 25% 29.62 in 10.0 mi SSW 20.7 mph 31.1 mph N/A   Clear
5:14 PM 71.6 °F - 35.6 °F 27% 29.62 in 10.0 mi SSW 20.7 mph 33.4 mph N/A   Clear
5:34 PM 71.6 °F - 35.6 °F 27% 29.62 in 10.0 mi SSW 18.4 mph 26.5 mph N/A   Clear
5:54 PM 73.4 °F - 35.6 °F 25% 29.62 in 10.0 mi SSW 13.8 mph 21.9 mph N/A   Clear
6:14 PM 71.6 °F - 35.6 °F 27% 29.63 in 10.0 mi SSW 11.5 mph 19.6 mph N/A   Clear
6:34 PM 69.8 °F - 35.6 °F 28% 29.64 in 10.0 mi WSW 9.2 mph 17.3 mph N/A   Clear
7:14 PM 69.8 °F - 41.0 °F 35% 29.66 in 10.0 mi WSW 6.9 mph - N/A   Clear
7:34 PM 68.0 °F - 41.0 °F 37% 29.66 in 10.0 mi West 12.7 mph - N/A   Clear
8:14 PM 64.4 °F - 41.0 °F 42% 29.68 in 10.0 mi West 5.8 mph - N/A   Clear
8:34 PM 62.6 °F - 42.8 °F 48% 29.68 in 10.0 mi West 5.8 mph - N/A   Clear
9:14 PM 62.6 °F - 41.0 °F 45% 29.70 in 10.0 mi WSW 6.9 mph - N/A   Clear
9:34 PM 57.2 °F - 41.0 °F 55% 29.70 in 10.0 mi SW 5.8 mph - N/A   Clear
9:54 PM 60.8 °F - 41.0 °F 48% 29.72 in 10.0 mi WSW 6.9 mph - N/A   Clear
10:14 PM 59.0 °F - 41.0 °F 51% 29.72 in 10.0 mi West 6.9 mph - N/A   Clear
10:34 PM 59.0 °F - 41.0 °F 51% 29.73 in 10.0 mi WSW 5.8 mph - N/A   Clear
10:54 PM 57.2 °F - 41.0 °F 55% 29.73 in 10.0 mi WSW 6.9 mph - N/A   Clear
11:14 PM 57.2 °F - 41.0 °F 55% 29.74 in 10.0 mi WSW 5.8 mph - N/A   Clear
11:34 PM 57.2 °F - 41.0 °F 55% 29.75 in 10.0 mi WSW 5.8 mph - N/A   Clear
11:54 PM 55.4 °F - 41.0 °F 58% 29.75 in 10.0 mi WSW 4.6 mph - N/A   Clear